Caldwell, NJ

3:48 AM EST on February 19, 2018 (GMT -0500)
Essex County

Weather History for KCDW - November, 2013

Change the Weather History Date:

Saturday, November 16, 2013

  Actual Average Record
Temperature  
Mean Temperature 50 °F -  
Max Temperature 60 °F 51 °F 77 °F (1993)
Min Temperature 39 °F 32 °F 14 °F (1982)
Degree Days  
Heating Degree Days 16    
Moisture  
Dew Point 39 °F    
Average Humidity 75    
Maximum Humidity 100    
Minimum Humidity 46    
Precipitation  
Precipitation 0.00 in - - ()
Sea Level Pressure  
Sea Level Pressure 30.31 in    
Wind  
Wind Speed 1 mph (South)    
Max Wind Speed 8 mph    
Max Gust Speed -    
Visibility 8 miles    
Events Rain    
Averages and records for this station are not official NWS values.
T = Trace of Precipitation, MM = Missing Value Source: NWS Daily Summary

Daily Weather History Graph

Daily Weather History Graph

Search for Another Location

Airport or City:

Trip Planner

Search our weather history database for the weather conditions in past years. The results will help you decide how hot, cold, wet, or windy it might be!

Date:

Astronomy

Nov. 16, 2013 Rise Set
Actual Time 6:45 AM EST 4:37 PM EST
Civil Twilight 6:16 AM EST 5:07 PM EST
Nautical Twilight 5:42 AM EST 5:40 PM EST
Astronomical Twilight 5:10 AM EST 6:12 PM EST
Moon 4:11 PM EST (11/16) 5:39 AM EST (11/16)
Length of Visible Light 10h 51m
Length of Day
9h 51m
Waxing Gibbous, 99% of the Moon is Illuminated
Nov 16
Waxing Gibbous
Nov 17
Full
Nov 25
Last Quarter
Dec 2
New
Dec 9
First Quarter

Hourly Weather History & Observations

Time (EST) Temp. Windchill Dew Point Humidity Pressure Visibility Wind Dir Wind Speed Gust Speed Precip Events Conditions
12:53 AM 39.0 °F - 28.9 °F 67% 30.27 in 10.0 mi Calm Calm - N/A   Mostly Cloudy
1:53 AM 43.0 °F - 28.0 °F 56% 30.29 in 10.0 mi Calm Calm - N/A   Overcast
2:53 AM 42.1 °F - 30.9 °F 65% 30.29 in 10.0 mi Calm Calm - 0.00 in Rain Light Rain
3:53 AM 44.1 °F 42.5 °F 32.0 °F 63% 30.27 in 10.0 mi South 3.5 mph - 0.00 in   Overcast
4:53 AM 43.0 °F - 32.0 °F 65% 30.30 in 10.0 mi Calm Calm - 0.00 in Rain Light Rain
5:53 AM 42.1 °F - 30.9 °F 65% 30.30 in 8.0 mi Calm Calm - 0.00 in Rain Light Rain
6:53 AM 42.1 °F - 34.0 °F 73% 30.33 in 7.0 mi Calm Calm - 0.00 in Rain Light Rain
7:53 AM 43.0 °F - 41.0 °F 93% 30.33 in 5.0 mi Calm Calm - 0.00 in   Mostly Cloudy
8:53 AM 46.0 °F - 39.9 °F 79% 30.35 in 8.0 mi Calm Calm - N/A   Overcast
9:53 AM 50.0 °F - 41.0 °F 71% 30.36 in 10.0 mi WNW 3.5 mph - N/A   Clear
10:53 AM 55.0 °F - 42.1 °F 62% 30.35 in 10.0 mi Variable 3.5 mph - N/A   Clear
11:53 AM 57.0 °F - 39.9 °F 53% 30.31 in 10.0 mi Calm Calm - N/A   Clear
12:53 PM 57.9 °F - 39.0 °F 49% 30.31 in 10.0 mi South 5.8 mph - N/A   Clear
1:53 PM 60.1 °F - 39.0 °F 46% 30.30 in 10.0 mi Calm Calm - N/A   Clear
2:53 PM 60.1 °F - 39.0 °F 46% 30.30 in 10.0 mi SSW 4.6 mph - N/A   Clear
3:53 PM 59.0 °F - 39.0 °F 48% 30.30 in 10.0 mi South 4.6 mph - N/A   Clear
4:53 PM 53.1 °F - 44.1 °F 71% 30.30 in 10.0 mi SSE 8.1 mph - N/A   Clear
5:53 PM 51.1 °F - 46.0 °F 83% 30.32 in 10.0 mi South 4.6 mph - N/A   Clear
6:53 PM 50.0 °F - 46.0 °F 86% 30.33 in 10.0 mi Calm Calm - N/A   Clear
7:53 PM 45.0 °F - 43.0 °F 93% 30.32 in 8.0 mi Calm Calm - N/A   Clear
8:53 PM 44.1 °F - 42.1 °F 93% 30.33 in 7.0 mi Calm Calm - N/A   Clear
9:34 PM 42.8 °F - 42.8 °F 100% 30.30 in 5.0 mi Calm Calm - N/A   Mostly Cloudy
9:44 PM 42.8 °F - 41.0 °F 93% 30.30 in 6.0 mi Calm Calm - N/A   Mostly Cloudy
9:53 PM 42.1 °F - 41.0 °F 96% 30.32 in 6.0 mi Calm Calm - N/A   Mostly Cloudy
10:04 PM 42.8 °F - 41.0 °F 93% 30.30 in 6.0 mi Calm Calm - N/A   Scattered Clouds
10:53 PM 42.1 °F - 41.0 °F 96% 30.31 in 6.0 mi Calm Calm - N/A   Clear
11:22 PM 42.8 °F - 41.0 °F 93% 30.29 in 6.0 mi Calm Calm - N/A   Mostly Cloudy
11:53 PM 44.1 °F - 42.1 °F 93% 30.31 in 5.0 mi Calm Calm - N/A   Overcast